Weather WX

World > North America > United States > Pennsylvania

Clifton Heights, Pennsylvania Regional Weather

Lat: 39.93N, Lon: 75.3W
Wx Zone: PAZ070
Feedback

Clifton Heights, PA Regional Weather

Expires:201906260500;;087069
ASUS41 KPHI 260412
RWRPHI

REGIONAL WEATHER ROUNDUP
NATIONAL WEATHER SERVICE MOUNT HOLLY NJ
1200 AM EDT WED JUN 26 2019

NOTE:  "FAIR" INDICATES FEW OR NO CLOUDS BELOW 12,000 FEET WITH NO
SIGNIFICANT WEATHER AND/OR OBSTRUCTIONS TO VISIBILITY.

 * = STATION DOES NOT REPORT PRECIPITATION (E.G. RAIN, SNOW, ETC.) 
        OR FOG.


PAZ043-044-047-054-055-060>062-066>071-260500-
EASTERN PENNSYLVANIA
  
CITY           SKY/WX    TMP DP  RH WIND       PRES   REMARKS
PHILADELPHIA   FAIR      77  63  61 W8        29.93R                  
NORTH PHILA    FAIR      78  61  55 W7        29.93R                  
BLUE BELL*     FAIR      71  63  76 SW3       29.94R                  
DOYLESTOWN     FAIR      75  60  59 CALM      29.93R                  
QUAKERTOWN*    CLEAR     68  64  88 CALM      29.95R                  
PERKASIE*      FAIR      72  63  73 NW6       29.95R                  
POTTSTOWN      FAIR      70  61  73 CALM      29.96R                  
LANCASTER      FAIR      71  63  75 W6        29.96R                  
COATESVILLE    FAIR      70  61  73 W5        29.98R                  
WEST CHESTER   FAIR      72  61  68 W3        29.96R                  
READING        FAIR      73  64  73 W3        29.94R                  
ALLENTOWN      FAIR      72  61  68 W5        29.93R                  
QN CITY/ALNTWN FAIR     N/A N/A N/A SW5       29.96R                  
MOUNT POCONO   FAIR      64  59  83 W10       30.01R                  
HAZLETON       FAIR      61  55  82 CALM      30.04S                  
LEHIGHTON      FAIR      63  61  94 CALM      29.96R                  
WILKES BARRE   FAIR      75  56  51 W5        29.98R                  

$$

SKY/WX - Weather  TMP - Temperature  DP - Dew Point  RH - Relative Humidity
WIND - Wind Direction/Speed PRES - Barometric Pressure VSB - Visibility
WCI - Wind Chill Index E13G22 Wind - East Wind 13 mph/Gusts of 22 mph